| time (UTC) | temp C | wind direction | speed KPH | gust KPH | rain 1hr cm | rain 24hr cm | rain mn cm | humidity % | barometer mb |
| 20260906205019 | 26 | 90 | 1.6 | 8.0 | 0.00 | 0.03 | 0.03 | 54 | 1014.6 |
| 20260906204019 | 25 | 338 | 3.2 | 9.7 | 0.00 | 0.03 | 0.03 | 56 | 1014.4 |
| 20260906203019 | 26 | 315 | 1.6 | 8.0 | 0.00 | 0.03 | 0.03 | 55 | 1014.5 |
| 20260906202019 | 26 | 315 | 1.6 | 6.4 | 0.00 | 0.03 | 0.03 | 55 | 1014.5 |
| 20260906201019 | 26 | 315 | 1.6 | 11.3 | 0.00 | 0.03 | 0.03 | 55 | 1014.5 |
| 20260906200019 | 26 | 90 | 1.6 | 9.7 | 0.00 | 0.03 | 0.03 | 54 | 1014.6 |
| 20260906195019 | 25 | 90 | 4.8 | 12.9 | 0.00 | 0.03 | 0.03 | 58 | 1014.6 |
| 20260906194233 | 25 | 338 | 3.2 | 8.0 | 0.00 | 0.03 | 0.03 | 55 | 1014.5 |
| 20260906193019 | 25 | 0 | 1.6 | 8.0 | 0.00 | 0.03 | 0.03 | 55 | 1014.6 |
| 20260906192019 | 25 | 338 | 3.2 | 12.9 | 0.00 | 0.03 | 0.03 | 58 | 1014.6 |
| 20260906191231 | 25 | 0 | 4.8 | 17.7 | 0.00 | 0.03 | 0.03 | 56 | 1014.7 |
| 20260906190231 | 25 | 0 | 3.2 | 9.7 | 0.00 | 0.03 | 0.03 | 60 | 1014.9 |
| 20260906185019 | 25 | 293 | 3.2 | 12.9 | 0.00 | 0.03 | 0.03 | 60 | 1014.9 |
| 20260906184228 | 25 | 68 | 3.2 | 11.3 | 0.00 | 0.03 | 0.03 | 59 | 1015.1 |
| 20260906183019 | 24 | 68 | 3.2 | 16.1 | 0.00 | 0.03 | 0.03 | 61 | 1015.1 |
| 20260906182019 | 24 | 68 | 3.2 | 6.4 | 0.00 | 0.03 | 0.03 | 61 | 1015.2 |
| 20260906181019 | 23 | 68 | 3.2 | 11.3 | 0.00 | 0.03 | 0.03 | 61 | 1015.2 |
| 20260906180019 | 23 | 68 | 1.6 | 6.4 | 0.00 | 0.03 | 0.03 | 62 | 1015.3 |
| 20260906175019 | 23 | 90 | 3.2 | 9.7 | 0.00 | 0.03 | 0.03 | 62 | 1015.4 |
| 20260906174019 | 23 | 45 | 3.2 | 8.0 | 0.00 | 0.03 | 0.03 | 63 | 1015.5 |
| 20260906173020 | 23 | 270 | 3.2 | 11.3 | 0.00 | 0.03 | 0.03 | 63 | 1015.5 |
| 20260906172019 | 23 | 68 | 3.2 | 11.3 | 0.00 | 0.03 | 0.03 | 63 | 1015.6 |
| 20260906171019 | 23 | 45 | 3.2 | 9.7 | 0.00 | 0.03 | 0.03 | 63 | 1015.6 |
| 20260906170019 | 22 | 338 | 3.2 | 9.7 | 0.00 | 0.03 | 0.03 | 63 | 1015.6 |
| 20260906165019 | 22 | 68 | 3.2 | 14.5 | 0.00 | 0.03 | 0.03 | 64 | 1015.7 |
| 20260906164230 | 22 | 68 | 4.8 | 12.9 | 0.00 | 0.03 | 0.03 | 64 | 1015.6 |
| 20260906163019 | 22 | 68 | 8.0 | 17.7 | 0.00 | 0.03 | 0.03 | 63 | 1015.5 |
| 20260906162019 | 22 | 68 | 6.4 | 16.1 | 0.00 | 0.03 | 0.03 | 63 | 1015.5 |
| 20260906161019 | 22 | 338 | 1.6 | 8.0 | 0.00 | 0.03 | 0.03 | 62 | 1015.5 |
| 20260906160019 | 22 | 68 | 4.8 | 12.9 | 0.00 | 0.03 | 0.03 | 62 | 1015.7 |
| 20260906155019 | 22 | 68 | 6.4 | 19.3 | 0.00 | 0.03 | 0.03 | 61 | 1015.5 |
| 20260906154020 | 22 | 68 | 6.4 | 20.9 | 0.00 | 0.03 | 0.03 | 61 | 1015.3 |
| 20260906153019 | 22 | 68 | 4.8 | 16.1 | 0.00 | 0.03 | 0.03 | 58 | 1015.5 |
| 20260906152019 | 22 | 68 | 6.4 | 16.1 | 0.00 | 0.03 | 0.03 | 59 | 1015.4 |
| 20260906151019 | 22 | 68 | 6.4 | 20.9 | 0.00 | 0.03 | 0.03 | 55 | 1015.3 |
| 20260906150019 | 22 | 45 | 4.8 | 16.1 | 0.00 | 0.03 | 0.03 | 53 | 1015.3 |
| 20260906145019 | 22 | 23 | 6.4 | 17.7 | 0.00 | 0.03 | 0.03 | 57 | 1015.4 |
| 20260906144444 | 22 | 0 | 4.8 | 11.3 | 0.00 | 0.03 | 0.03 | 48 | 1015.2 |
| 20260906143019 | 21 | 0 | 3.2 | 9.7 | 0.00 | 0.03 | 0.03 | 38 | 1015.3 |
| 20260906142020 | 21 | 0 | 1.6 | 9.7 | 0.00 | 0.03 | 0.03 | 23 | 1015.1 |
| 20260906141019 | 21 | 0 | 1.6 | 8.0 | 0.00 | 0.03 | 0.03 | 100 | 1015.0 |
| 20260906140019 | 21 | 0.0 | 1.6 | 0.00 | 0.03 | 0.03 | 100 | 1015.0 | |
| 20260906135019 | 20 | 0 | 3.2 | 9.7 | 0.00 | 0.03 | 0.03 | 100 | 1014.9 |
| 20260906134231 | 18 | 0 | 1.6 | 6.4 | 0.00 | 0.03 | 0.03 | 100 | 1014.8 |
| 20260906133019 | 18 | 0 | 1.6 | 6.4 | 0.00 | 0.03 | 0.03 | 100 | 1014.8 |
| 20260906132019 | 18 | 0 | 1.6 | 8.0 | 0.00 | 0.03 | 0.03 | 100 | 1014.8 |
| 20260906131442 | 17 | 0 | 1.6 | 8.0 | 0.00 | 0.03 | 0.03 | 100 | 1014.8 |
| 20260906130020 | 16 | 0 | 1.6 | 11.3 | 0.00 | 0.03 | 0.03 | 100 | 1014.8 |
| 20260906125020 | 16 | 0.0 | 6.4 | 0.00 | 0.03 | 0.03 | 100 | 1014.7 | |
| 20260906124019 | 15 | 0 | 1.6 | 4.8 | 0.00 | 0.03 | 0.03 | 100 | 1014.7 |
| 20260906123019 | 15 | 0.0 | 3.2 | 0.00 | 0.03 | 0.03 | 100 | 1014.7 | |
| 20260906122019 | 14 | 0 | 1.6 | 4.8 | 0.00 | 0.03 | 0.03 | 100 | 1014.5 |
| 20260906121230 | 14 | 0.0 | 4.8 | 0.00 | 0.03 | 0.03 | 100 | 1014.4 | |
| 20260906120020 | 13 | 0 | 1.6 | 4.8 | 0.00 | 0.03 | 0.03 | 100 | 1014.2 |
| 20260906115232 | 13 | 0 | 1.6 | 3.2 | 0.00 | 0.03 | 0.03 | 100 | 1014.2 |
| 20260906114233 | 13 | 0.0 | 0.0 | 0.00 | 0.03 | 0.03 | 100 | 1014.1 | |
| 20260906113020 | 12 | 0.0 | 1.6 | 0.00 | 0.03 | 0.03 | 100 | 1014.1 | |
| 20260906112019 | 12 | 0.0 | 0.0 | 0.00 | 0.03 | 0.03 | 100 | 1014.0 | |
| 20260906111020 | 12 | 0.0 | 0.0 | 0.00 | 0.03 | 0.03 | 100 | 1014.0 | |
| 20260906110020 | 12 | 0.0 | 0.0 | 0.00 | 0.03 | 0.03 | 100 | 1013.8 | |
| 20260906105019 | 12 | 0.0 | 0.0 | 0.00 | 0.03 | 0.03 | 100 | 1013.9 | |
| 20260906104233 | 12 | 0.0 | 0.0 | 0.00 | 0.03 | 0.03 | 100 | 1013.8 | |
| 20260906103020 | 12 | 0.0 | 1.6 | 0.00 | 0.03 | 0.03 | 100 | 1013.7 | |
| 20260906102020 | 12 | 0.0 | 0.0 | 0.00 | 0.03 | 0.03 | 100 | 1013.6 | |
| 20260906101020 | 12 | 0.0 | 0.0 | 0.00 | 0.03 | 0.03 | 100 | 1013.6 | |
| 20260906100019 | 12 | 0.0 | 1.6 | 0.03 | 0.03 | 0.03 | 100 | 1013.6 | |
| 20260906095020 | 12 | 0.0 | 1.6 | 0.03 | 0.03 | 0.03 | 100 | 1013.4 | |
| 20260906094020 | 12 | 0.0 | 0.0 | 0.03 | 0.03 | 0.03 | 100 | 1013.3 | |
| 20260906093230 | 12 | 0.0 | 0.0 | 0.03 | 0.03 | 0.03 | 100 | 1013.2 | |
| 20260906092444 | 12 | 0.0 | 0.0 | 0.03 | 0.03 | 0.03 | 100 | 1013.2 | |
| 20260906091020 | 12 | 0.0 | 0.0 | 0.03 | 0.03 | 0.03 | 100 | 1013.1 | |
| 20260906090020 | 12 | 0.0 | 0.0 | 0.00 | 0.00 | 0.00 | 100 | 1013.0 | |
| 20260906085020 | 12 | 0.0 | 0.0 | 0.00 | 0.00 | 0.00 | 100 | 1013.0 | |
| 20260906084019 | 12 | 0.0 | 0.0 | 0.00 | 0.00 | 0.00 | 100 | 1012.7 | |
| 20260906083020 | 12 | 0.0 | 0.0 | 0.00 | 0.00 | 0.00 | 100 | 1012.7 | |
| 20260906082020 | 12 | 0.0 | 0.0 | 0.00 | 0.00 | 0.00 | 100 | 1012.5 | |
| 20260906081020 | 12 | 0.0 | 0.0 | 0.00 | 0.00 | 0.00 | 100 | 1012.5 | |
| 20260906080020 | 12 | 0.0 | 0.0 | 0.00 | 0.00 | 0.00 | 100 | 1012.4 | |
| 20260906075020 | 12 | 0.0 | 0.0 | 0.00 | 0.00 | 0.00 | 100 | 1012.5 | |
| 20260906074230 | 12 | 0.0 | 0.0 | 0.00 | 0.00 | 0.00 | 100 | 1012.4 | |
| 20260906073020 | 13 | 0.0 | 1.6 | 0.00 | 0.00 | 0.00 | 100 | 1012.3 | |
| 20260906072020 | 12 | 0.0 | 0.0 | 0.00 | 0.00 | 0.00 | 100 | 1012.3 | |
| 20260906071233 | 12 | 0.0 | 0.0 | 0.00 | 0.00 | 0.00 | 100 | 1012.3 | |
| 20260906070020 | 13 | 0.0 | 0.0 | 0.00 | 0.00 | 0.00 | 100 | 1012.3 | |
| 20260906065020 | 13 | 0.0 | 0.0 | 0.00 | 0.00 | 0.00 | 100 | 1012.3 | |
| 20260906064020 | 13 | 0.0 | 0.0 | 0.00 | 0.00 | 0.00 | 100 | 1012.2 | |
| 20260906063232 | 13 | 0.0 | 0.0 | 0.00 | 0.00 | 0.00 | 100 | 1012.3 | |
| 20260906062020 | 13 | 0.0 | 0.0 | 0.00 | 0.00 | 0.00 | 100 | 1012.3 | |
| 20260906061020 | 13 | 0.0 | 0.0 | 0.00 | 0.00 | 0.00 | 100 | 1012.2 | |
| 20260906060229 | 13 | 0.0 | 0.0 | 0.00 | 0.00 | 0.00 | 100 | 1012.3 | |
| 20260906055020 | 13 | 0.0 | 0.0 | 0.00 | 0.00 | 0.00 | 100 | 1012.3 | |
| 20260906054020 | 13 | 0.0 | 0.0 | 0.00 | 0.00 | 0.00 | 100 | 1012.5 | |
| 20260906053021 | 13 | 0.0 | 0.0 | 0.00 | 0.00 | 0.00 | 100 | 1012.5 | |
| 20260906052233 | 13 | 0.0 | 0.0 | 0.00 | 0.00 | 0.00 | 100 | 1012.6 | |
| 20260906051020 | 13 | 0.0 | 0.0 | 0.00 | 0.00 | 0.00 | 100 | 1012.6 | |
| 20260906050020 | 14 | 0.0 | 0.0 | 0.00 | 0.00 | 0.00 | 100 | 1012.6 | |
| 20260906045020 | 14 | 0.0 | 0.0 | 0.00 | 0.00 | 0.00 | 100 | 1012.5 | |
| 20260906044020 | 14 | 0.0 | 0.0 | 0.00 | 0.00 | 0.00 | 100 | 1012.6 | |
| 20260906043020 | 14 | 0.0 | 0.0 | 0.00 | 0.00 | 0.00 | 100 | 1012.6 | |
| 20260906042020 | 14 | 0.0 | 0.0 | 0.00 | 0.00 | 0.00 | 100 | 1012.8 | |
| 20260906041020 | 14 | 0.0 | 0.0 | 0.00 | 0.00 | 0.00 | 100 | 1012.7 | |
| 20260906040231 | 14 | 0.0 | 0.0 | 0.00 | 0.00 | 0.00 | 100 | 1012.5 | |
| 20260906035019 | 14 | 0.0 | 0.0 | 0.00 | 0.00 | 0.00 | 100 | 1012.6 | |
| 20260906034019 | 14 | 0.0 | 0.0 | 0.00 | 0.00 | 0.00 | 100 | 1012.5 | |
| 20260906033019 | 14 | 0.0 | 0.0 | 0.00 | 0.00 | 0.00 | 100 | 1012.4 | |
| 20260906032019 | 15 | 0.0 | 0.0 | 0.00 | 0.00 | 0.00 | 100 | 1012.4 | |
| 20260906031019 | 15 | 0.0 | 0.0 | 0.00 | 0.00 | 0.00 | 100 | 1012.3 | |
| 20260906030019 | 15 | 0.0 | 0.0 | 0.00 | 0.00 | 0.00 | 100 | 1012.1 | |
| 20260906025019 | 15 | 0.0 | 0.0 | 0.00 | 0.00 | 0.00 | 100 | 1012.2 | |
| 20260906024228 | 15 | 0.0 | 0.0 | 0.00 | 0.00 | 0.00 | 100 | 1012.1 | |
| 20260906023019 | 16 | 0.0 | 0.0 | 0.00 | 0.00 | 0.00 | 100 | 1012.0 | |
| 20260906022019 | 16 | 0.0 | 0.0 | 0.00 | 0.00 | 0.00 | 100 | 1011.9 | |
| 20260906021231 | 16 | 0.0 | 0.0 | 0.00 | 0.00 | 0.00 | 100 | 1011.9 | |
| 20260906020019 | 17 | 0.0 | 0.0 | 0.00 | 0.00 | 0.00 | 100 | 1011.8 | |
| 20260906015019 | 17 | 0.0 | 0.0 | 0.00 | 0.00 | 0.00 | 100 | 1011.6 | |
| 20260906014019 | 17 | 0.0 | 0.0 | 0.00 | 0.00 | 0.00 | 100 | 1011.6 | |
| 20260906013019 | 17 | 0.0 | 0.0 | 0.00 | 0.00 | 0.00 | 100 | 1011.5 | |
| 20260906012444 | 18 | 0.0 | 0.0 | 0.00 | 0.00 | 0.00 | 100 | 1011.5 | |
| 20260906011232 | 18 | 0.0 | 0.0 | 0.00 | 0.00 | 0.00 | 100 | 1011.4 | |
| 20260906010020 | 18 | 0.0 | 0.0 | 0.00 | 0.00 | 0.00 | 100 | 1011.3 | |
| 20260906005020 | 18 | 0.0 | 0.0 | 0.00 | 0.00 | 0.00 | 100 | 1011.1 | |
| 20260906004019 | 18 | 0.0 | 0.0 | 0.00 | 0.00 | 0.00 | 100 | 1011.0 | |
| 20260906003230 | 19 | 0.0 | 0.0 | 0.00 | 0.00 | 0.00 | 100 | 1010.9 | |
| 20260906002019 | 19 | 0.0 | 0.0 | 0.00 | 0.00 | 0.00 | 100 | 1011.0 | |
| 20260906001019 | 20 | 0.0 | 0.0 | 0.00 | 0.00 | 0.00 | 100 | 1010.7 | |
| 20260906000448 | 20 | 0.0 | 0.0 | 0.00 | 0.00 | 0.00 | 100 | 1010.5 | |
| 20260905235020 | 20 | 0.0 | 0.0 | 0.00 | 0.00 | 0.00 | 10 | 1010.4 | |
| 20260905234020 | 21 | 0.0 | 0.0 | 0.00 | 0.00 | 0.00 | 29 | 1010.4 | |
| 20260905233019 | 21 | 0.0 | 0.0 | 0.00 | 0.00 | 0.00 | 40 | 1010.4 | |
| 20260905232232 | 22 | 0.0 | 0.0 | 0.00 | 0.00 | 0.00 | 51 | 1010.4 | |
| 20260905231020 | 23 | 0.0 | 0.0 | 0.00 | 0.00 | 0.00 | 60 | 1010.4 | |
| 20260905230229 | 24 | 0.0 | 1.6 | 0.00 | 0.00 | 0.00 | 64 | 1010.4 | |
| 20260905225019 | 25 | 0.0 | 3.2 | 0.00 | 0.00 | 0.00 | 64 | 1010.4 | |
| 20260905224020 | 25 | 0.0 | 3.2 | 0.00 | 0.00 | 0.00 | 64 | 1010.3 | |
| 20260905223020 | 25 | 0 | 1.6 | 6.4 | 0.00 | 0.00 | 0.00 | 61 | 1010.2 |
| 20260905222233 | 25 | 0 | 3.2 | 11.3 | 0.00 | 0.00 | 0.00 | 60 | 1010.3 |
| 20260905221019 | 25 | 0 | 3.2 | 9.7 | 0.00 | 0.00 | 0.00 | 59 | 1010.3 |
| 20260905220019 | 26 | 0 | 1.6 | 6.4 | 0.00 | 0.00 | 0.00 | 60 | 1010.3 |
| 20260905215230 | 26 | 0 | 1.6 | 6.4 | 0.00 | 0.00 | 0.00 | 58 | 1010.2 |
| 20260905214020 | 26 | 0 | 3.2 | 8.0 | 0.00 | 0.00 | 0.00 | 57 | 1010.2 |
| 20260905213020 | 26 | 0 | 1.6 | 4.8 | 0.00 | 0.00 | 0.00 | 58 | 1010.1 |
| 20260905212020 | 26 | 0 | 3.2 | 4.8 | 0.00 | 0.00 | 0.00 | 58 | 1010.0 |
| 20260905211019 | 26 | 0 | 1.6 | 4.8 | 0.00 | 0.00 | 0.00 | 59 | 1010.0 |
| 20260905210020 | 26 | 0 | 3.2 | 6.4 | 0.00 | 0.00 | 0.00 | 60 | 1010.0 |